Time,TemperatureF,DewpointF,PressureIn,WindDirection,WindDirectionDegrees,WindSpeedMPH,WindSpeedGustMPH,Humidity,HourlyPrecipIn,Conditions,Clouds,dailyrainin,SoftwareType,DateUTC
2017-04-27 00:01:00,63.3,29.7,29.69,SW,219,0.0,0.0,28,0.00,,---,0.00,VWS V14.01,2017-04-27 07:01:00,
2017-04-27 00:06:00,63.4,29.8,29.69,SW,219,0.0,0.0,28,0.00,,---,0.00,VWS V14.01,2017-04-27 07:06:00,
2017-04-27 00:11:00,63.5,30.7,29.69,SW,219,0.0,0.0,29,0.00,,---,0.00,VWS V14.01,2017-04-27 07:11:00,
2017-04-27 00:16:00,63.5,31.5,29.68,SW,219,0.0,0.0,30,0.00,,---,0.00,VWS V14.01,2017-04-27 07:16:00,
2017-04-27 00:21:00,63.6,32.4,29.68,SW,219,0.0,0.0,31,0.00,,---,0.00,VWS V14.01,2017-04-27 07:21:00,
2017-04-27 00:26:00,63.8,33.4,29.68,SW,219,0.0,0.0,32,0.00,,---,0.00,VWS V14.01,2017-04-27 07:26:00,
2017-04-27 00:31:00,63.8,30.1,29.68,SW,218,0.0,0.0,28,0.00,,---,0.00,VWS V14.01,2017-04-27 07:31:00,
2017-04-27 00:36:00,63.8,28.3,29.67,SW,215,0.0,0.0,26,0.00,,---,0.00,VWS V14.01,2017-04-27 07:36:00,
2017-04-27 00:41:00,63.8,31.0,29.67,SSW,207,0.0,0.0,29,0.00,,---,0.00,VWS V14.01,2017-04-27 07:41:00,
2017-04-27 00:46:00,63.8,31.8,29.67,SSW,207,0.0,0.0,30,0.00,,---,0.00,VWS V14.01,2017-04-27 07:46:00,
2017-04-27 00:51:00,63.7,31.7,29.67,SSW,207,0.0,0.0,30,0.00,,---,0.00,VWS V14.01,2017-04-27 07:51:00,
2017-04-27 00:56:00,63.5,32.3,29.67,SSW,207,0.0,0.0,31,0.00,,---,0.00,VWS V14.01,2017-04-27 07:56:00,
2017-04-27 01:01:00,63.4,33.0,29.67,SSW,207,0.0,0.0,32,0.00,,---,0.00,VWS V14.01,2017-04-27 08:01:00,
2017-04-27 01:06:00,63.4,33.0,29.68,SSW,207,0.0,0.0,32,0.00,,---,0.00,VWS V14.01,2017-04-27 08:06:00,
2017-04-27 01:11:00,63.3,33.7,29.68,SSW,207,0.0,0.0,33,0.00,,---,0.00,VWS V14.01,2017-04-27 08:11:00,
2017-04-27 01:16:00,63.2,33.6,29.69,SSW,207,0.0,0.0,33,0.00,,---,0.00,VWS V14.01,2017-04-27 08:16:00,
2017-04-27 01:21:00,63.1,33.6,29.69,SSW,207,0.0,0.0,33,0.00,,---,0.00,VWS V14.01,2017-04-27 08:21:00,
2017-04-27 01:26:00,63.1,34.3,29.68,SSW,207,0.0,0.0,34,0.00,,---,0.00,VWS V14.01,2017-04-27 08:26:00,
2017-04-27 01:31:00,62.9,34.1,29.68,SSW,207,0.0,0.0,34,0.00,,---,0.00,VWS V14.01,2017-04-27 08:31:00,
2017-04-27 01:36:00,62.8,34.8,29.68,SSW,207,0.0,0.0,35,0.00,,---,0.00,VWS V14.01,2017-04-27 08:36:00,
2017-04-27 01:41:00,62.7,35.4,29.68,SSW,207,0.0,0.0,36,0.00,,---,0.00,VWS V14.01,2017-04-27 08:41:00,
2017-04-27 01:46:00,62.8,35.5,29.69,SSW,207,0.0,0.0,36,0.00,,---,0.00,VWS V14.01,2017-04-27 08:46:00,
2017-04-27 01:47:00,62.8,35.5,29.69,SSW,207,0.0,0.0,36,0.00,,---,0.00,VWS V14.01,2017-04-27 08:47:00,
2017-04-27 01:52:00,62.9,35.6,29.69,SSW,207,0.0,0.0,36,0.00,,---,0.00,VWS V14.01,2017-04-27 08:52:00,
2017-04-27 01:57:00,62.9,35.6,29.68,SSW,207,0.0,0.0,36,0.00,,---,0.00,VWS V14.01,2017-04-27 08:57:00,
2017-04-27 02:02:00,62.9,36.2,29.66,SSW,207,0.0,0.0,37,0.00,,---,0.00,VWS V14.01,2017-04-27 09:02:00,
2017-04-27 02:07:00,62.8,36.2,29.67,SSW,208,0.0,0.0,37,0.00,,---,0.00,VWS V14.01,2017-04-27 09:07:00,
2017-04-27 02:12:00,62.9,36.2,29.66,SSW,208,0.0,0.0,37,0.00,,---,0.00,VWS V14.01,2017-04-27 09:12:00,
2017-04-27 02:17:00,62.9,35.6,29.66,SSW,199,0.0,0.0,36,0.00,,---,0.00,VWS V14.01,2017-04-27 09:17:00,
2017-04-27 02:22:00,62.8,35.5,29.66,SSW,198,0.0,0.0,36,0.00,,---,0.00,VWS V14.01,2017-04-27 09:22:00,
2017-04-27 02:27:00,62.7,35.4,29.66,SSW,198,0.0,0.0,36,0.00,,---,0.00,VWS V14.01,2017-04-27 09:27:00,
2017-04-27 02:32:00,62.6,35.3,29.66,SSW,198,0.0,0.0,36,0.00,,---,0.00,VWS V14.01,2017-04-27 09:32:00,
2017-04-27 02:37:00,62.5,35.2,29.67,SSW,198,0.0,0.0,36,0.00,,---,0.00,VWS V14.01,2017-04-27 09:37:00,
2017-04-27 02:42:00,62.4,35.1,29.67,SSW,198,0.0,0.0,36,0.00,,---,0.00,VWS V14.01,2017-04-27 09:42:00,
2017-04-27 02:47:00,62.2,34.9,29.67,SSW,198,0.0,0.0,36,0.00,,---,0.00,VWS V14.01,2017-04-27 09:47:00,
2017-04-27 02:52:00,62.1,35.5,29.67,SSW,198,0.0,0.0,37,0.00,,---,0.00,VWS V14.01,2017-04-27 09:52:00,
2017-04-27 02:57:00,61.9,36.0,29.67,SSW,198,0.0,0.0,38,0.00,,---,0.00,VWS V14.01,2017-04-27 09:57:00,
2017-04-27 03:02:00,61.8,36.0,29.66,SSW,198,0.0,0.0,38,0.00,,---,0.00,VWS V14.01,2017-04-27 10:02:00,
2017-04-27 03:07:00,61.6,35.8,29.66,SSW,198,0.0,0.0,38,0.00,,---,0.00,VWS V14.01,2017-04-27 10:07:00,
2017-04-27 03:12:00,61.6,36.4,29.66,SSW,198,0.0,0.0,39,0.00,,---,0.00,VWS V14.01,2017-04-27 10:12:00,
2017-04-27 03:17:00,61.4,36.2,29.67,SSW,198,0.0,0.0,39,0.00,,---,0.00,VWS V14.01,2017-04-27 10:17:00,
2017-04-27 03:22:00,61.3,36.2,29.67,SSW,198,0.0,0.0,39,0.00,,---,0.00,VWS V14.01,2017-04-27 10:22:00,
2017-04-27 03:27:00,61.2,36.1,29.67,SSW,198,0.0,0.0,39,0.00,,---,0.00,VWS V14.01,2017-04-27 10:27:00,
2017-04-27 03:32:00,61.1,36.0,29.67,SSW,198,0.0,0.0,39,0.00,,---,0.00,VWS V14.01,2017-04-27 10:32:00,
2017-04-27 03:37:00,61.0,36.5,29.67,SSW,198,0.0,0.0,40,0.00,,---,0.00,VWS V14.01,2017-04-27 10:37:00,
2017-04-27 03:42:00,61.0,35.9,29.67,SSW,198,0.0,0.0,39,0.00,,---,0.00,VWS V14.01,2017-04-27 10:42:00,
2017-04-27 03:47:00,60.8,36.3,29.66,SSW,198,0.0,0.0,40,0.00,,---,0.00,VWS V14.01,2017-04-27 10:47:00,
2017-04-27 03:52:00,60.7,36.3,29.66,SSW,198,0.0,0.0,40,0.00,,---,0.00,VWS V14.01,2017-04-27 10:52:00,
2017-04-27 03:57:00,60.6,36.2,29.66,SSW,198,0.0,0.0,40,0.00,,---,0.00,VWS V14.01,2017-04-27 10:57:00,
2017-04-27 04:02:00,60.5,36.7,29.66,SSW,198,0.0,0.0,41,0.00,,---,0.00,VWS V14.01,2017-04-27 11:02:00,
2017-04-27 04:12:00,59.9,36.2,29.66,SSW,198,0.0,0.0,41,0.00,,---,0.00,VWS V14.01,2017-04-27 11:12:00,
2017-04-27 04:17:00,59.5,36.4,29.65,SSW,198,0.0,0.0,42,0.00,,---,0.00,VWS V14.01,2017-04-27 11:17:00,
2017-04-27 04:22:00,59.3,36.2,29.65,SSW,198,0.0,0.0,42,0.00,,---,0.00,VWS V14.01,2017-04-27 11:22:00,